SCP
0 0 0 0 0 0 0 0 0 0 0 0 0 0 0 0 0 0 0 0 0 0 0 0 0 0 0 0 0 0 0 0 0 0 0 0 0 0 0 0 0 0 0 0
0 0 0 0 0 0 0 0 0 0 0 0 0 0 0 0 0 0 0 0 0 0 0 0 0 0 0 0 0 0 0 0 0 0 0 0 0 0 0 0 0 0 0 0
0 0 0 0 0 0 0 0 0 0 0 0 0 0 0 0 0 0 0 0 0 0 0 0 0 0 0 0 0 0 0 0 0 0 0 0 0 0 0 0 0 0 0 0
0 0 0 0 0 0 0 0 0 0 0 0 0 0 0 0 0 0 0 0 0 0 0 0 0 0 0 0 0 0 0 0 0 0 0 0 0 0 0 0 0 0 0 0
0 0 0 0 0 0 0 0 0 0 0 0 0 0 0 0 0 0 0 0 0 0 0 0 0 0 0 0 0 0 0 0 0 0 0 0 0 0 0 0 0 0 0 0
0 0 0 0 0 0 0 0 0 0 0 0 0 0 0 0 0 0 0 0 0 0 0 0 0 0 0 0 0 0 0 0 0 0 0 0 0 0 0 0 0 0 0 0
0 0 0 0 0 0 0 0 0 0 0 0 0 0 0 0 0 0 0 0 0 0 0 0 0 0 0 0 0 0 0 0 0 0 0 0 0 0 0 0 0 0 0 0
0 0 0 0 0 0 0 0 0 0 0 0 0 0 0 0 0 0 0 0 0 0 0 0 0 0 0 0 0 0 0 0 0 0 0 0 0 0 0 0 0 0 0 0
0 0 0 0 0 0 0 0 0 0 0 0 0 0 0 0 0 0 0 0 0 0 0 0 0 0 0 0 0 0 0 0 0 0 0 0 0 0 0 0 0 0 0 0
0 0 0 0 0 0 0 0 0 0 0 0 0 0 0 0 0 0 0 0 0 0 0 0 0 0 0 0 0 0 0 0 0 0 0 0 0 0 0 0 0 0 0 0
0 0 0 0 0 0 0 0 0 0 0 0 0 0 0 0 0 0 0 0 0 0 0 0 0 0 0 0 0 0 0 0 0 0 0 0 0 0 0 0 0 0 0 0
0 0 0 0 0 0 0 0 0 0 0 0 0 0 0 0 0 0 0 0 0 0 0 0 0 0 0 0 0 0 0 0 0 0 0 0 0 0 0 0 0 0 0 0
0 0 0 0 0 0 0 0 0 0 0 0 0 0 0 0 0 0 0 0 0 0 0 0 0 0 0 0 0 0 0 0 0 0 0 0 0 0 0 0 0 0 0 0
0 0 0 0 0 0 0 0 0 0 0 0 0 0 0 0 0 0 0 0 0 0 0 0 0 0 0 0 0 0 0 0 0 0 0 0 0 0 0 0 0 0 0 0
0 0 0 0 0 0 0 0 0 0 0 0 0 0 0 0 0 0 0 0 0 0 0 0 0 0 0 0 0 0 0 0 0 0 0 0 0 0 0 0 0 0 0 0
0 0 0 0 0 0 0 0 0 0 0 0 0 0 0 0 0 0 0 0 0 0 0 0 0 0 0 0 0 0 0 0 0 0 0 0 0 0 0 0 0 0 0 0
0 0 0 0 0 0 0 0 0 0 0 0 0 0 0 0 0 0 0 0 0 0 0 0 0 0 0 0 0 0 0 0 0 0 0 0 0 0 0 0 0 0 0 0
0 0 0 0 0 0 0 0 0 0 0 0 0 0 0 0 0 0 0 0 0 0 0 0 0 0 0 0 0 0 0 0 0 0 0 0 0 0 0 0 0 0 0 0
0 0 0 0 0 0 0 0 0 0 0 0 0 0 0 0 0 0 0 0 0 0 0 0 0 0 0 0 0 0 0 0 0 0 0 0 0 0 0 0 0 0 0 0
0 0 0 0 0 0 0 0 0 0 0 0 0 0 0 0 0 0 0 0 0 0 0 0 0 0 0 0 0 0 0 0 0 0 0 0 0 0 0 0 0 0 0 0
0 0 0 0 0 0 0 0 0 0 0 0 0 0 0 0 0 0 0 0 0 0 0 0 0 0 0 0 0 0 0 0 0 0 0 0 0 0 0 0 0 0 0 0
0 0 0 0 0 0 0 0 0 0 0 0 0 0 0 0 0 0 0 0 0 0 0 0 0 0 0 0 0 0 0 0 0 0 0 0 0 0 0 0 0 0 0 0
0 0 0 0 0 0 0 0 0 0 0 0 0 0 0 0 0 0 0 0 0 0 0 0 0 0 0 0 0 0 0 0 0 0 0 0 0 0 0 0 0 0 0 0
0 0 0 0 0 0 0 0 0 0 0 0 0 0 0 0 0 0 0 0 0 0 0 0 0 0 0 0 0 0 0 0 0 0 0 0 0 0 0 0 0 0 0 0
0 0 0 0 0 0 0 0 0 0 0 0 0 0 0 0 0 0 0 0 0 0 0 0 0 0 0 0 0 0 0 0 0 0 0 0 0 0 0 0 0 0 0 0
0 0 0 0 0 0 0 0 0 0 0 0 0 0 0 0 0 0 0 0 0 0 0 0 0 0 0 0 0 0 0 0 0 0 0 0 0 0 0 0 0 0 0 0
0 0 0 0 0 0 0 0 0 0 0 0 0 0 0 0 0 0 0 0 0 0 0 0 0 0 0 0 0 0 0 0 0 0 0 0 0 0 0 0 0 0 0 0
Wind_Speed
6 4 4 5 7 7 7 6 4 3 2 1 1 2 3 3 4 7 8 8 8 8 8 8 8 7 8 8 7 7 7 6 5 5 5 5 5 4 3 3 3 3 3 3
8 6 6 6 7 7 7 6 5 4 2 1 1 1 3 4 4 5 6 6 7 8 8 8 9 8 7 8 8 8 8 7 5 5 5 5 5 4 4 3 3 3 3 3
6 5 6 7 6 7 7 6 5 4 2 2 2 2 3 3 4 4 4 5 6 7 7 7 7 8 8 8 8 8 8 7 6 6 6 6 6 5 5 4 3 3 3 4
5 5 6 4 2 3 4 5 5 3 1 2 2 3 3 3 4 4 4 4 4 5 6 6 7 7 8 7 8 8 7 7 7 6 6 5 5 5 5 4 4 3 3 4
4 4 5 3 2 3 4 4 3 3 2 2 4 4 3 3 4 4 4 3 3 4 4 5 5 6 7 7 7 7 7 7 7 7 7 6 6 6 4 4 4 4 4 4
4 4 4 2 2 2 2 2 1 1 2 4 4 2 2 4 5 5 4 3 3 3 3 4 4 5 6 6 7 7 7 7 7 7 7 6 6 5 4 4 4 4 4 4
7 6 3 1 1 3 4 1 1 1 1 2 2 3 5 6 5 5 5 4 4 4 3 3 3 4 4 4 5 5 6 6 7 7 7 6 5 4 5 4 4 4 4 4
7 6 4 1 2 2 1 2 2 3 3 4 6 7 7 6 6 5 5 5 5 5 4 3 3 4 3 3 3 4 5 5 5 6 6 6 5 5 5 5 4 4 3 3
3 2 3 2 1 1 1 2 3 4 4 4 6 7 6 6 6 5 5 5 4 5 4 3 3 3 3 3 3 4 5 5 5 5 4 5 5 5 4 3 3 3 3 3
3 3 3 2 2 2 3 3 3 4 4 4 5 6 6 5 5 5 5 5 4 4 4 3 3 3 3 3 3 5 5 5 4 4 4 4 3 4 3 3 3 3 3 2
4 3 2 2 2 3 3 3 4 4 4 4 5 5 5 5 5 4 4 4 4 3 3 4 4 4 3 2 3 4 5 5 4 4 4 4 3 3 3 2 3 3 3 2
3 3 2 3 4 4 4 3 4 4 4 4 5 5 5 5 5 5 5 4 4 4 4 4 4 4 3 3 3 4 3 3 3 3 3 3 3 2 2 2 3 4 3 2
2 1 2 3 4 4 4 4 4 5 5 5 5 5 5 5 5 5 5 5 5 4 4 4 4 4 3 3 3 3 3 3 3 2 3 3 3 3 2 0 0 1 2 3
1 2 2 2 3 4 4 4 5 5 5 5 5 5 5 5 5 5 4 4 5 5 4 4 4 3 3 3 4 3 3 3 3 2 2 2 2 2 2 2 1 1 2 3
2 2 3 3 3 4 4 4 5 5 5 5 5 5 5 5 5 4 4 5 5 5 5 4 4 3 3 3 4 4 3 2 2 2 2 1 1 1 1 1 1 1 1 1
3 2 4 4 4 4 4 4 4 4 5 5 5 5 4 4 5 5 5 5 5 5 5 5 4 3 3 4 4 3 3 4 3 2 2 2 1 1 1 1 1 1 1 1
4 4 5 5 4 4 4 3 4 4 4 5 5 5 5 5 5 5 5 5 5 6 5 5 4 4 4 4 4 2 2 3 3 2 2 1 1 1 1 1 1 1 0 1
4 3 4 4 4 4 4 4 4 4 4 5 5 5 5 5 5 5 5 5 6 6 6 5 5 4 4 4 3 2 2 2 1 1 1 2 1 1 1 1 1 1 0 1
3 3 4 3 3 3 3 4 4 4 5 5 5 5 4 5 5 5 5 6 5 5 4 5 5 4 4 5 4 2 2 2 2 2 2 2 1 1 1 1 1 1 1 1
2 3 4 4 3 4 3 3 4 5 4 5 6 5 5 5 5 5 6 6 4 4 4 5 4 4 5 5 5 2 2 2 2 2 1 1 1 1 1 1 1 1 1 1
3 3 4 4 3 3 4 4 5 5 5 5 6 6 5 5 5 5 6 5 5 5 5 5 4 4 4 4 4 2 2 2 2 2 2 2 2 2 2 2 2 2 2 2
3 3 3 4 3 3 3 4 5 6 6 5 5 6 6 6 6 6 6 5 5 6 4 3 3 5 5 4 2 2 2 3 2 2 2 2 2 2 2 2 2 2 3 3
3 3 3 3 4 4 4 4 5 6 6 6 6 6 6 5 5 5 4 4 4 6 4 3 4 6 5 3 2 3 3 3 3 3 2 2 2 2 2 3 2 3 3 3
2 3 3 3 3 4 5 5 5 5 6 6 6 6 6 5 5 4 4 6 7 6 4 5 6 6 4 2 3 3 3 3 3 3 3 3 2 2 2 2 2 2 3 3
2 2 3 4 4 3 4 5 6 6 6 5 6 6 5 4 5 4 5 5 6 6 4 5 6 4 3 3 3 3 3 3 3 2 2 2 2 2 2 2 2 2 2 2
2 2 2 3 3 3 3 4 4 4 5 5 5 5 5 5 5 5 4 5 5 5 3 3 3 3 3 3 3 3 2 2 3 3 3 2 2 2 2 2 3 2 2 2
3 3 3 3 3 3 3 4 4 4 5 5 5 4 4 4 4 4 4 4 3 3 3 3 2 3 3 3 2 2 2 2 2 2 2 2 2 2 2 2 2 2 2 2
Wind_Direction
257 254 238 224 225 229 237 243 260 276 266 175 137 157 147 151 155 154 159 162 163 165 169 170 173 177 174 168 167 164 163 169 173 166 156 149 143 148 147 138 140 131 119 112
255 243 241 242 226 226 236 242 247 263 277 109 145 127 144 155 148 145 149 156 159 165 170 174 176 175 171 168 168 164 165 169 168 166 151 149 150 152 145 142 138 123 124 119
268 254 254 251 233 219 220 223 234 248 249 141 133 135 142 138 136 139 140 150 162 168 172 176 177 173 172 171 168 167 168 167 167 164 152 156 157 152 150 155 146 136 139 132
263 259 249 234 207 206 217 232 239 240 231 170 145 123 120 132 144 145 140 145 159 166 164 169 172 166 164 161 166 168 167 167 165 161 155 155 152 153 160 157 150 159 162 149
246 249 255 243 188 197 217 228 228 227 202 165 136 121 118 130 131 136 137 141 150 156 155 159 161 158 156 161 165 163 164 167 163 158 156 158 160 162 164 158 159 172 174 163
245 247 247 226 154 178 232 225 210 229 190 179 174 169 151 131 124 119 118 123 126 129 137 145 147 149 152 163 164 165 165 165 160 157 157 163 167 166 159 158 166 172 178 178
239 243 242 283 150 204 227 153 123 222 156 140 129 106 107 107 104 106 108 111 110 104 97 95 117 130 144 153 160 159 153 153 153 156 160 163 162 158 156 162 171 181 182 187
228 230 218 204 220 224 81 64 74 82 87 99 100 101 102 104 107 110 111 111 113 110 103 90 97 116 124 122 133 130 133 138 144 152 158 158 156 161 164 166 177 185 191 196
221 195 146 178 184 117 98 82 65 64 70 87 108 112 112 112 114 116 119 119 112 111 109 101 98 105 121 119 122 125 128 134 139 143 146 150 155 159 160 165 180 189 189 196
213 176 165 176 138 112 97 89 79 78 87 88 101 111 116 117 116 118 115 111 111 114 112 107 105 103 109 123 140 134 135 142 146 149 147 142 141 153 160 175 183 186 191 197
226 171 151 144 116 119 115 108 98 92 92 93 102 109 113 115 115 114 112 113 116 119 115 112 103 99 102 112 127 128 136 142 143 139 140 138 138 147 160 179 179 182 193 188
227 193 195 163 144 133 135 129 118 107 95 88 96 107 106 108 108 108 111 112 109 105 105 103 102 98 92 94 112 121 125 125 125 131 134 134 132 119 97 135 162 165 160 160
227 192 139 137 137 135 136 131 118 110 109 103 95 95 96 100 103 105 108 111 112 112 109 105 98 92 91 94 103 107 112 119 124 129 132 142 148 156 162 188 260 206 204 201
131 135 144 141 130 137 138 129 119 116 113 110 107 103 99 97 97 101 104 108 109 105 100 100 97 88 85 99 99 97 99 102 108 118 131 151 163 170 169 169 181 237 237 226
228 208 162 134 128 130 131 136 132 127 118 107 101 101 103 106 105 101 96 97 103 102 101 97 89 81 79 95 98 99 100 95 100 110 115 111 107 112 126 149 150 146 123 172
217 185 154 154 154 149 149 149 141 128 122 115 110 109 106 103 99 97 95 98 104 101 98 92 82 74 74 79 83 88 94 91 90 99 101 100 100 96 96 93 91 101 112 123
201 190 176 171 168 160 150 144 134 122 120 119 116 117 116 112 108 106 105 101 99 92 86 85 82 73 75 76 81 82 84 88 88 86 86 92 89 96 102 101 89 86 116 147
230 204 185 174 164 156 148 138 129 125 120 118 118 121 121 122 121 114 109 104 96 88 78 73 67 71 72 67 64 71 84 93 90 92 85 77 65 50 52 64 61 61 51 184
209 179 154 153 157 149 143 140 134 127 125 126 125 121 116 111 109 108 105 100 99 95 82 74 71 73 76 66 57 57 69 83 82 72 72 73 61 45 43 44 40 28 13 15
178 153 145 151 150 146 143 144 137 129 125 124 123 119 113 108 108 109 104 94 86 85 83 75 70 69 70 61 49 49 57 65 71 69 62 65 57 39 33 30 29 17 0 356
150 133 128 131 135 140 146 149 140 132 127 126 128 127 121 113 108 108 107 99 82 75 80 77 70 66 63 51 37 44 56 57 57 59 55 47 38 31 26 26 30 26 15 9
143 136 137 140 143 145 145 140 133 132 130 129 128 124 118 112 105 95 86 93 92 86 82 74 69 66 57 46 44 51 56 56 55 52 48 44 40 34 31 30 26 18 15 13
147 147 147 149 151 145 137 138 135 131 131 131 130 128 123 116 115 116 109 96 97 88 83 78 76 71 59 56 60 62 62 60 58 53 45 44 40 34 31 29 24 18 12 5
151 153 146 142 139 137 138 129 120 115 116 115 116 118 119 114 104 94 101 107 105 102 93 96 88 71 55 63 71 69 65 62 59 53 45 40 36 32 31 28 24 17 10 2
119 122 130 132 131 124 121 117 113 110 111 112 112 108 104 105 111 110 108 109 108 102 96 94 85 72 64 71 70 65 59 57 52 45 46 43 37 32 30 29 23 10 359 354
98 97 98 103 104 108 114 115 115 118 117 112 105 99 97 98 102 104 105 107 103 100 99 101 93 79 70 67 64 60 57 52 50 51 46 40 32 27 21 15 4 358 352 348
93 92 91 93 91 95 104 109 113 114 114 114 111 106 104 103 103 103 102 105 104 98 92 89 85 78 74 71 67 61 58 56 55 52 46 37 30 23 13 359 350 346 347 346